• In Deutschland
  • Länderverzeichnis
  • Für 7 Tage
  • Wassertemperatur
  • Satellitenkarten
  • Wetterkarte
  • Widgets
  • user-avatar
    Anmelden

    Stündliche Wetter Gjirokaster

    Heute, 27 März, Montag

    Zeit Temperatur Niederschläge Wind Luftdruck Luftfeuchtigkeit
    00:00 +2°C° 0 mm 2 m/S 649 mmHg 94%
    01:00 +2°C° 0 mm 2 m/S 649 mmHg 94%
    02:00 +3°C° 0 mm 1 m/S 649 mmHg 93%
    03:00 +2°C° 0 mm 1 m/S 650 mmHg 93%
    04:00 +2°C° 0 mm 1 m/S 650 mmHg 92%
    05:00 +3°C° 0 mm 1 m/S 650 mmHg 88%
    06:00 +4°C° 0 mm 1 m/S 650 mmHg 83%
    07:00 +4°C° 0 mm 1 m/S 651 mmHg 79%
    08:00 +6°C° 0,2 mm 1 m/S 651 mmHg 71%
    09:00 +7°C° 0,2 mm 2 m/S 652 mmHg 64%
    10:00 +8°C° 0,2 mm 2 m/S 653 mmHg 57%
    11:00 +8°C° 0,6 mm 2 m/S 653 mmHg 58%
    12:00 +9°C° 0,6 mm 2 m/S 653 mmHg 60%
    13:00 +9°C° 0,6 mm 2 m/S 653 mmHg 61%
    14:00 +8°C° 0,7 mm 2 m/S 652 mmHg 64%
    15:00 +8°C° 0,7 mm 2 m/S 652 mmHg 67%
    16:00 +7°C° 0,7 mm 2 m/S 652 mmHg 70%
    17:00 +7°C° 0,2 mm 1 m/S 652 mmHg 75%
    18:00 +5°C° 0,2 mm 1 m/S 652 mmHg 81%
    19:00 +4°C° 0,2 mm 1 m/S 652 mmHg 86%
    20:00 +3°C° 0 mm 1 m/S 652 mmHg 87%
    21:00 +3°C° 0 mm 1 m/S 652 mmHg 87%
    22:00 +3°C° 0 mm 1 m/S 652 mmHg 88%
    23:00 +2°C° 0 mm 1 m/S 652 mmHg 88%

    Morgen, 28 März, Dienstag

    Zeit Temperatur Niederschläge Wind Luftdruck Luftfeuchtigkeit
    00:00 +1°C° 0 mm 2 m/S 653 mmHg 88%
    01:00 +1°C° 0 mm 2 m/S 653 mmHg 88%
    02:00 +1°C° 0 mm 2 m/S 652 mmHg 88%
    03:00 -1°C° 0 mm 2 m/S 652 mmHg 88%
    04:00 -1°C° 0 mm 2 m/S 652 mmHg 88%
    05:00 +1°C° 0 mm 2 m/S 652 mmHg 86%
    06:00 +2°C° 0 mm 2 m/S 653 mmHg 84%
    07:00 +1°C° 0 mm 3 m/S 653 mmHg 81%
    08:00 +4°C° 0 mm 2 m/S 653 mmHg 72%
    09:00 +6°C° 0 mm 2 m/S 654 mmHg 63%
    10:00 +9°C° 0 mm 1 m/S 655 mmHg 54%
    11:00 +10°C° 0 mm 1 m/S 655 mmHg 51%
    12:00 +9°C° 0 mm 2 m/S 654 mmHg 49%
    13:00 +10°C° 0 mm 2 m/S 654 mmHg 46%
    14:00 +10°C° 0,1 mm 2 m/S 654 mmHg 48%
    15:00 +9°C° 0,1 mm 2 m/S 654 mmHg 51%
    16:00 +9°C° 0,1 mm 2 m/S 653 mmHg 53%
    17:00 +7°C° 0 mm 2 m/S 653 mmHg 61%
    18:00 +5°C° 0 mm 2 m/S 653 mmHg 70%
    19:00 +3°C° 0 mm 2 m/S 653 mmHg 78%
    20:00 +2°C° 0 mm 2 m/S 653 mmHg 78%
    21:00 +2°C° 0 mm 2 m/S 653 mmHg 77%
    22:00 +2°C° 0 mm 2 m/S 653 mmHg 77%
    23:00 +1°C° 0 mm 2 m/S 653 mmHg 75%

    übermorgen, 29 März, Mittwoch

    Zeit Temperatur Niederschläge Wind Luftdruck Luftfeuchtigkeit
    00:00 +1°C° 0 mm 2 m/S 653 mmHg 74%
    01:00 +1°C° 0 mm 2 m/S 653 mmHg 73%
    02:00 +1°C° 0 mm 2 m/S 653 mmHg 72%
    03:00 +1°C° 0 mm 2 m/S 653 mmHg 71%
    04:00 -1°C° 0 mm 2 m/S 653 mmHg 70%
    05:00 +1°C° 0 mm 2 m/S 653 mmHg 67%
    06:00 +3°C° 0 mm 2 m/S 653 mmHg 65%
    07:00 +4°C° 0 mm 2 m/S 654 mmHg 62%
    08:00 +6°C° 0 mm 2 m/S 654 mmHg 54%
    09:00 +9°C° 0 mm 1 m/S 655 mmHg 47%
    10:00 +11°C° 0 mm 1 m/S 655 mmHg 39%
    11:00 +12°C° 0 mm 2 m/S 655 mmHg 38%
    12:00 +13°C° 0 mm 2 m/S 655 mmHg 36%
    13:00 +12°C° 0 mm 3 m/S 655 mmHg 35%
    14:00 +12°C° 0 mm 3 m/S 655 mmHg 37%
    15:00 +11°C° 0 mm 3 m/S 655 mmHg 40%
    16:00 +11°C° 0 mm 3 m/S 654 mmHg 42%
    17:00 +8°C° 0 mm 3 m/S 654 mmHg 52%
    18:00 +6°C° 0 mm 2 m/S 653 mmHg 62%
    19:00 +3°C° 0 mm 2 m/S 653 mmHg 72%
    20:00 +3°C° 0 mm 2 m/S 653 mmHg 70%
    21:00 +3°C° 0 mm 2 m/S 653 mmHg 69%
    22:00 +2°C° 0 mm 2 m/S 653 mmHg 68%
    23:00 +2°C° 0 mm 2 m/S 653 mmHg 66%

    30 März, Donnerstag

    Zeit Temperatur Niederschläge Wind Luftdruck Luftfeuchtigkeit
    00:00 +2°C° 0 mm 2 m/S 653 mmHg 64%
    01:00 +2°C° 0 mm 2 m/S 653 mmHg 63%
    02:00 +2°C° 0 mm 2 m/S 653 mmHg 62%
    03:00 +1°C° 0 mm 2 m/S 653 mmHg 62%
    04:00 +1°C° 0 mm 2 m/S 652 mmHg 62%
    05:00 +3°C° 0 mm 2 m/S 653 mmHg 60%
    06:00 +4°C° 0 mm 2 m/S 653 mmHg 59%
    07:00 +5°C° 0 mm 2 m/S 654 mmHg 57%
    08:00 +8°C° 0 mm 1 m/S 654 mmHg 51%
    09:00 +11°C° 0 mm 1 m/S 655 mmHg 46%
    10:00 +13°C° 0 mm 1 m/S 655 mmHg 40%
    11:00 +13°C° 0 mm 2 m/S 655 mmHg 39%
    12:00 +13°C° 0 mm 3 m/S 655 mmHg 39%
    13:00 +13°C° 0 mm 3 m/S 655 mmHg 38%
    14:00 +13°C° 0 mm 3 m/S 655 mmHg 42%
    15:00 +12°C° 0 mm 3 m/S 654 mmHg 45%
    16:00 +11°C° 0 mm 4 m/S 654 mmHg 49%
    17:00 +9°C° 0 mm 3 m/S 654 mmHg 58%
    18:00 +7°C° 0 mm 3 m/S 654 mmHg 66%
    19:00 +4°C° 0 mm 3 m/S 653 mmHg 75%
    20:00 +4°C° 0 mm 3 m/S 653 mmHg 74%
    21:00 +4°C° 0 mm 3 m/S 654 mmHg 74%
    22:00 +4°C° 0 mm 2 m/S 654 mmHg 74%
    23:00 +4°C° 0 mm 2 m/S 654 mmHg 74%

    31 März, Freitag

    Zeit Temperatur Niederschläge Wind Luftdruck Luftfeuchtigkeit
    00:00 +4°C° 0 mm 2 m/S 654 mmHg 74%
    01:00 +4°C° 0 mm 2 m/S 654 mmHg 74%
    02:00 +4°C° 0 mm 2 m/S 654 mmHg 75%
    03:00 +3°C° 0 mm 2 m/S 654 mmHg 77%
    04:00 +3°C° 0 mm 2 m/S 654 mmHg 78%
    05:00 +4°C° 0 mm 2 m/S 654 mmHg 76%
    06:00 +5°C° 0 mm 2 m/S 654 mmHg 73%
    07:00 +6°C° 0 mm 2 m/S 655 mmHg 71%
    08:00 +9°C° 0 mm 1 m/S 656 mmHg 62%
    09:00 +11°C° 0 mm 1 m/S 656 mmHg 53%
    10:00 +14°C° 0 mm 1 m/S 657 mmHg 44%
    11:00 +14°C° 0 mm 1 m/S 657 mmHg 43%
    12:00 +15°C° 0 mm 2 m/S 657 mmHg 42%
    13:00 +16°C° 0 mm 2 m/S 657 mmHg 41%
    14:00 +15°C° 0,1 mm 2 m/S 656 mmHg 45%
    15:00 +14°C° 0,1 mm 2 m/S 656 mmHg 48%
    16:00 +13°C° 0,1 mm 2 m/S 656 mmHg 51%
    17:00 +10°C° 0 mm 2 m/S 655 mmHg 60%
    18:00 +9°C° 0 mm 1 m/S 655 mmHg 69%
    19:00 +7°C° 0 mm 1 m/S 655 mmHg 78%
    20:00 +7°C° 0 mm 1 m/S 655 mmHg 78%
    21:00 +7°C° 0 mm 1 m/S 655 mmHg 78%
    22:00 +7°C° 0 mm 1 m/S 655 mmHg 79%
    23:00 +6°C° 0 mm 1 m/S 655 mmHg 79%

    1 April, Samstag

    Zeit Temperatur Niederschläge Wind Luftdruck Luftfeuchtigkeit
    00:00 +6°C° 0 mm 1 m/S 655 mmHg 80%
    01:00 +5°C° 0 mm 2 m/S 655 mmHg 81%
    02:00 +4°C° 0 mm 2 m/S 654 mmHg 81%
    03:00 +4°C° 0 mm 2 m/S 654 mmHg 81%
    04:00 +3°C° 0 mm 2 m/S 654 mmHg 81%
    05:00 +4°C° 0 mm 2 m/S 654 mmHg 78%
    06:00 +5°C° 0 mm 2 m/S 654 mmHg 75%
    07:00 +5°C° 0 mm 2 m/S 654 mmHg 72%
    08:00 +8°C° 0 mm 2 m/S 655 mmHg 65%
    09:00 +10°C° 0 mm 2 m/S 655 mmHg 58%
    10:00 +13°C° 0 mm 2 m/S 656 mmHg 50%
    11:00 +12°C° 0,1 mm 3 m/S 655 mmHg 50%
    12:00 +12°C° 0,1 mm 3 m/S 655 mmHg 50%
    13:00 +13°C° 0,1 mm 3 m/S 655 mmHg 49%
    14:00 +12°C° 0,3 mm 3 m/S 654 mmHg 54%
    15:00 +11°C° 0,3 mm 3 m/S 654 mmHg 58%
    16:00 +10°C° 0,3 mm 3 m/S 653 mmHg 63%
    17:00 +8°C° 0,2 mm 2 m/S 653 mmHg 70%
    18:00 +7°C° 0,2 mm 2 m/S 653 mmHg 78%
    19:00 +6°C° 0,2 mm 1 m/S 652 mmHg 85%
    20:00 +5°C° 0 mm 2 m/S 652 mmHg 85%
    21:00 +4°C° 0 mm 2 m/S 652 mmHg 86%
    22:00 +4°C° 0 mm 2 m/S 652 mmHg 86%
    23:00 +4°C° 0 mm 2 m/S 652 mmHg 86%
    Mehr zeigen